Location: Alando
(42.3054°N, 9.2895°E)
Time: 03:29:12
(UTC+00:00)

Abrixas rocket - Pass Details

Date: 09 April 2020
Orbit: 344 x 351 km, 48.4° (Epoch: 02 June)

Event Time Altitude Azimuth Distance (km) Brightness Sun altitude
Rises 18:16:07 0° 295° (WNW) 2,161 8.1 -4.1°
Reaches altitude 10° 18:18:19 10° 309° (NW) 1,321 6.1 -4.5°
Maximum altitude 18:20:53 26° 9° (N) 734 3.6 -4.9°
Drops below altitude 10° 18:23:29 10° 70° (ENE) 1,327 4.3 -5.4°
Enters shadow 18:24:32 - 78° (ENE) 1,718 4.8 -5.6°
